Weather History for South Haven, MI

Change the Weather History Date:

Wednesday, November 21, 2012

  Actual Average (KBIV) Record (KBIV)
Temperature  
Mean Temperature 52 °F 40 °F  
Max Temperature 57 °F 46 °F 63 °F (1982)
Min Temperature 46 °F 33 °F 18 °F (1964)
Degree Days  
Heating Degree Days 14 25  
Month to date heating degree days 451  
Since 1 July heating degree days 976  
Cooling Degree Days 0 0  
Month to date cooling degree days 0  
Year to date cooling degree days 693  
Growing Degree Days 2 (Base 50)    
Moisture  
Dew Point 46 °F    
Average Humidity 87    
Maximum Humidity 99    
Minimum Humidity 66    
Precipitation  
Precipitation 0.00 in 0.09 in 0.93 in (1975)
Month to date precipitation 2.63  
Year to date precipitation 33.33  
Sea Level Pressure  
Sea Level Pressure 30.18 in    
Wind  
Wind Speed 2 mph (SSW)    
Max Wind Speed 8 mph    
Max Gust Speed -    
Visibility 4 miles    
Events Fog    
T = Trace of Precipitation, MM = Missing Value Source: NWS Daily Summary

Daily Weather History Graph

Daily Weather History Graph

Search for Another Location

Airport:

Trip Planner

Search our weather history database for the weather conditions in past years. The results will help you decide how hot, cold, wet, or windy it might be!

Date:

Astronomy

Nov. 21, 2012 Rise Set
Actual Time 7:43 AM EST 5:18 PM EST
Civil Twilight 7:13 AM EST 5:48 PM EST
Nautical Twilight 6:38 AM EST 6:23 PM EST
Astronomical Twilight 6:05 AM EST 6:56 PM EST
Moon 1:40 PM EST (11/21) 12:54 AM EST (11/21)
Length of Visible Light 10h 35m
Length of Day
9h 34m
First Quarter, 61% of the Moon is Illuminated
Nov 21
First Quarter
Nov 28
Full
Dec 6
Last Quarter
Dec 13
New
Dec 20
First Quarter

Hourly Weather History & Observations

Time (EST) Temp. Dew Point Humidity Pressure Visibility Wind Dir Wind Speed Gust Speed Precip Events Conditions
12:15 AM 48.2 °F 47.3 °F 97% 30.17 in 2.0 mi Calm Calm - N/A   Overcast
12:35 AM 48.2 °F 47.3 °F 97% 30.17 in 2.0 mi Calm Calm - N/A   Overcast
12:55 AM 47.7 °F 46.8 °F 97% 30.17 in 2.0 mi Calm Calm - N/A   Overcast
1:15 AM 47.7 °F 46.8 °F 97% 30.17 in 2.0 mi Calm Calm - N/A   Overcast
1:35 AM 48.6 °F 46.9 °F 94% 30.17 in 2.0 mi Calm Calm - N/A   Overcast
1:55 AM 49.3 °F 48.0 °F 95% 30.18 in 2.0 mi Calm Calm - N/A   Overcast
2:15 AM 48.7 °F 47.7 °F 96% 30.18 in 1.8 mi Calm Calm - N/A   Overcast
2:35 AM 48.6 °F 47.8 °F 97% 30.18 in 2.0 mi Calm Calm - N/A   Overcast
2:55 AM 48.4 °F 47.7 °F 97% 30.18 in 2.0 mi Calm Calm - N/A   Overcast
3:15 AM 48.2 °F 47.3 °F 97% 30.18 in 1.8 mi Calm Calm - N/A   Overcast
3:36 AM 47.8 °F 47.3 °F 98% 30.17 in 2.0 mi Calm Calm - N/A   Overcast
3:55 AM 47.8 °F 47.3 °F 98% 30.18 in 2.0 mi Calm Calm - N/A   Overcast
4:15 AM 47.7 °F 46.9 °F 97% 30.17 in 2.0 mi Calm Calm - N/A   Overcast
4:35 AM 47.3 °F 46.6 °F 97% 30.17 in 2.0 mi Calm Calm - N/A   Overcast
4:55 AM 46.4 °F 45.7 °F 97% 30.18 in 0.5 mi Calm Calm - N/A Fog Fog
5:15 AM 46.4 °F 45.9 °F 98% 30.19 in 0.8 mi Calm Calm - N/A   Overcast
5:35 AM 46.4 °F 45.9 °F 98% 30.19 in 1.8 mi Calm Calm - N/A   Overcast
5:55 AM 46.2 °F 45.7 °F 98% 30.19 in 1.8 mi Calm Calm - N/A   Overcast
6:15 AM 46.0 °F 45.5 °F 98% 30.20 in 1.8 mi Calm Calm - N/A   Overcast
6:35 AM 46.6 °F 46.0 °F 98% 30.20 in 2.0 mi Calm Calm - N/A   Overcast
6:55 AM 46.8 °F 46.4 °F 99% 30.20 in 1.8 mi Calm Calm - N/A   Overcast
7:15 AM 48.0 °F 46.9 °F 96% 30.20 in 2.0 mi Calm Calm - N/A   Overcast
7:35 AM 47.7 °F 47.1 °F 98% 30.20 in 1.8 mi Calm Calm - N/A   Overcast
7:55 AM 48.0 °F 47.3 °F 97% 30.21 in 1.5 mi Calm Calm - N/A   Overcast
8:15 AM 48.9 °F 47.8 °F 96% 30.22 in 0.2 mi Calm Calm - N/A Fog Fog
8:35 AM 48.0 °F 47.3 °F 97% 30.22 in 0.2 mi Calm Calm - N/A Fog Fog
8:55 AM 48.6 °F 48.2 °F 99% 30.23 in 0.2 mi Calm Calm - N/A Fog Fog
9:15 AM 49.1 °F 48.2 °F 97% 30.23 in 0.5 mi Calm Calm - N/A Fog Fog
9:36 AM 49.1 °F 48.2 °F 97% 30.23 in 1.5 mi Calm Calm - N/A   Overcast
9:55 AM 49.8 °F 47.7 °F 92% 30.24 in 2.5 mi SSW 3.5 mph - N/A   Overcast
10:15 AM 50.5 °F 47.1 °F 88% 30.24 in 4.0 mi Calm Calm - N/A   Overcast
10:35 AM 50.5 °F 46.8 °F 87% 30.24 in 4.0 mi West 6.9 mph - N/A   Mostly Cloudy
10:55 AM 51.1 °F 46.9 °F 86% 30.24 in 4.0 mi West 5.8 mph - N/A   Scattered Clouds
11:15 AM 52.7 °F 46.8 °F 80% 30.24 in 5.0 mi West 4.6 mph - N/A   Haze
11:35 AM 53.6 °F 46.9 °F 78% 30.23 in 5.0 mi Calm Calm - N/A   Haze
11:55 AM 54.1 °F 47.1 °F 77% 30.22 in 5.0 mi Calm Calm - N/A   Haze
12:15 PM 54.9 °F 46.0 °F 72% 30.21 in 7.0 mi SSW 5.8 mph - N/A   Clear
12:35 PM 55.4 °F 45.9 °F 70% 30.21 in 7.0 mi SW 4.6 mph - N/A   Clear
12:55 PM 55.8 °F 45.7 °F 69% 30.20 in 7.0 mi WSW 5.8 mph - N/A   Clear
1:15 PM 56.3 °F 45.9 °F 68% 30.20 in 7.0 mi South 5.8 mph - N/A   Clear
1:35 PM 56.7 °F 45.9 °F 67% 30.19 in 7.0 mi Calm Calm - N/A   Clear
1:55 PM 56.8 °F 45.7 °F 66% 30.19 in 7.0 mi SW 5.8 mph - N/A   Clear
2:15 PM 56.7 °F 45.5 °F 66% 30.18 in 7.0 mi South 5.8 mph - N/A   Clear
2:35 PM 57.2 °F 46.0 °F 66% 30.18 in 7.0 mi SSW 8.1 mph - N/A   Clear
2:56 PM 57.0 °F 46.2 °F 67% 30.18 in 7.0 mi SSW 6.9 mph - N/A   Clear
3:15 PM 56.7 °F 46.2 °F 68% 30.17 in 7.0 mi SW 6.9 mph - N/A   Clear
3:35 PM 56.5 °F 46.4 °F 69% 30.17 in 7.0 mi SSW 6.9 mph - N/A   Clear
3:55 PM 56.3 °F 46.4 °F 69% 30.16 in 7.0 mi SSW 3.5 mph - N/A   Clear
4:15 PM 56.3 °F 45.9 °F 68% 30.16 in 7.0 mi SSW 4.6 mph - N/A   Clear
4:35 PM 55.6 °F 46.4 °F 71% 30.16 in 7.0 mi SSW 6.9 mph - N/A   Clear
4:55 PM 55.0 °F 46.4 °F 73% 30.15 in 7.0 mi South 4.6 mph - N/A   Clear
5:15 PM 54.1 °F 45.9 °F 74% 30.15 in 7.0 mi South 3.5 mph - N/A   Clear
5:36 PM 52.3 °F 45.7 °F 78% 30.14 in 7.0 mi SSE 3.5 mph - N/A   Clear
5:55 PM 51.4 °F 45.5 °F 80% 30.14 in 7.0 mi SSE 3.5 mph - N/A   Clear
6:15 PM 50.2 °F 45.5 °F 84% 30.14 in 7.0 mi South 4.6 mph - N/A   Clear
6:35 PM 49.3 °F 45.3 °F 86% 30.14 in 5.0 mi South 4.6 mph - N/A   Clear
6:55 PM 49.1 °F 45.3 °F 87% 30.15 in 5.0 mi South 4.6 mph - N/A   Clear
7:15 PM 48.6 °F 45.0 °F 87% 30.15 in 5.0 mi South 4.6 mph - N/A   Clear
7:35 PM 48.4 °F 45.3 °F 89% 30.14 in 5.0 mi South 5.8 mph - N/A   Clear
7:55 PM 49.3 °F 45.7 °F 87% 30.14 in 5.0 mi South 4.6 mph - N/A   Clear
8:16 PM 48.4 °F 45.1 °F 89% 30.14 in 5.0 mi South 4.6 mph - N/A   Clear
8:35 PM 48.2 °F 45.1 °F 89% 30.14 in 4.0 mi South 4.6 mph - N/A   Clear
8:55 PM 48.2 °F 45.1 °F 89% 30.14 in 4.0 mi South 4.6 mph - N/A   Clear
9:15 PM 48.0 °F 45.3 °F 90% 30.14 in 4.0 mi South 5.8 mph - N/A   Clear
9:35 PM 47.8 °F 45.1 °F 90% 30.14 in 4.0 mi South 4.6 mph - N/A   Clear
9:55 PM 48.6 °F 45.5 °F 89% 30.13 in 4.0 mi South 6.9 mph - N/A   Clear
10:15 PM 49.1 °F 45.7 °F 88% 30.13 in 4.0 mi South 5.8 mph - N/A   Clear
10:35 PM 50.0 °F 46.0 °F 86% 30.12 in 5.0 mi South 5.8 mph - N/A   Clear
10:55 PM 50.2 °F 46.0 °F 86% 30.12 in 5.0 mi South 5.8 mph - N/A   Clear
11:15 PM 50.0 °F 46.0 °F 86% 30.12 in 4.0 mi South 6.9 mph - N/A   Clear
11:35 PM 50.0 °F 46.2 °F 87% 30.11 in 4.0 mi South 6.9 mph - N/A   Clear
11:55 PM 50.0 °F 46.4 °F 87% 30.12 in 4.0 mi South 6.9 mph - N/A   Clear